Location: Orinda
(37.8771°N, 122.1797°W)
Time: 07:26:08
(UTC+00:00)

Cosmos 1484 Rocket - Pass Details

Date: 21 October 2019
Orbit: 507 x 559 km, 97.4° (Epoch: 18 November)

Event Time Altitude Azimuth Distance (km) Brightness Sun altitude
Rises 13:07:25 0° 13° (NNE) 2,654 6.5 -15.6°
Reaches altitude 10° 13:09:31 10° 15° (NNE) 1,770 5.6 -15.2°
Maximum altitude 13:13:20 77° 101° (E) 549 2.9 -14.4°
Drops below altitude 10° 13:17:12 10° 188° (S) 1,787 5.4 -13.7°
Sets 13:19:19 0° 190° (S) 2,683 6.3 -13.2°
